| time (UTC) | temp F | wind direction | speed MPH | gust MPH | rain 1hr in | rain 24hr in | rain mn in | humidity % | barometer mb |
| 20260904213534 | 41 | 0 | 0.0 | 0.0 | 0.00 | 0.00 | 0.00 | 91 | 995.8 |
| 20260904213059 | 41 | 0 | 0.0 | 0.0 | 0.00 | 0.00 | 0.00 | 91 | 995.8 |
| 20260904212535 | 42 | 0 | 0.0 | 0.0 | 0.00 | 0.00 | 0.00 | 91 | 995.9 |
| 20260904212034 | 42 | 0 | 0.0 | 0.0 | 0.00 | 0.00 | 0.00 | 91 | 995.8 |
| 20260904211552 | 42 | 0 | 0.0 | 0.0 | 0.00 | 0.00 | 0.00 | 91 | 995.9 |
| 20260904211033 | 42 | 0 | 0.0 | 0.0 | 0.00 | 0.00 | 0.00 | 91 | 995.8 |
| 20260904210534 | 42 | 0 | 0.0 | 0.0 | 0.00 | 0.00 | 0.00 | 91 | 995.9 |
| 20260904210048 | 42 | 0 | 0.0 | 0.0 | 0.00 | 0.00 | 0.00 | 91 | 995.9 |
| 20260904205534 | 43 | 0 | 0.0 | 0.0 | 0.00 | 0.01 | 0.00 | 90 | 995.9 |
| 20260904205032 | 43 | 0 | 0.0 | 0.0 | 0.00 | 0.01 | 0.00 | 90 | 996.0 |
| 20260904204553 | 43 | 0 | 0.0 | 0.0 | 0.00 | 0.01 | 0.00 | 90 | 996.0 |
| 20260904204033 | 43 | 0 | 0.0 | 0.0 | 0.00 | 0.01 | 0.00 | 90 | 996.1 |
| 20260904203536 | 43 | 0 | 0.0 | 0.0 | 0.00 | 0.01 | 0.00 | 90 | 996.0 |
| 20260904203053 | 44 | 0 | 0.0 | 0.0 | 0.00 | 0.01 | 0.00 | 90 | 996.0 |
| 20260904202530 | 44 | 0 | 0.0 | 0.0 | 0.00 | 0.01 | 0.00 | 90 | 996.0 |
| 20260904202029 | 44 | 0 | 0.0 | 0.0 | 0.00 | 0.01 | 0.00 | 90 | 996.0 |
| 20260904201603 | 44 | 0 | 0.0 | 0.0 | 0.00 | 0.01 | 0.00 | 89 | 996.0 |
| 20260904201033 | 45 | 0 | 0.0 | 0.0 | 0.00 | 0.01 | 0.00 | 89 | 996.1 |
| 20260904200532 | 45 | 0 | 0.0 | 0.0 | 0.00 | 0.01 | 0.00 | 89 | 996.0 |
| 20260904200108 | 45 | 0 | 0.0 | 0.0 | 0.00 | 0.01 | 0.00 | 89 | 996.1 |
| 20260904195533 | 45 | 0 | 0.0 | 0.0 | 0.00 | 0.07 | 0.00 | 89 | 996.0 |
| 20260904195032 | 46 | 0 | 0.0 | 0.0 | 0.00 | 0.07 | 0.00 | 89 | 996.1 |
| 20260904194551 | 46 | 0 | 0.0 | 0.0 | 0.00 | 0.07 | 0.00 | 89 | 996.1 |
| 20260904194032 | 46 | 0 | 0.0 | 0.0 | 0.00 | 0.07 | 0.00 | 89 | 996.1 |
| 20260904193531 | 47 | 0 | 0.0 | 0.0 | 0.00 | 0.07 | 0.00 | 89 | 996.3 |
| 20260904193052 | 47 | 0 | 0.0 | 0.0 | 0.00 | 0.07 | 0.00 | 89 | 996.3 |
| 20260904192529 | 47 | 0 | 0.0 | 0.0 | 0.00 | 0.07 | 0.00 | 89 | 996.3 |
| 20260904192032 | 48 | 0 | 0.0 | 0.0 | 0.00 | 0.07 | 0.00 | 88 | 996.3 |
| 20260904191549 | 48 | 0 | 0.0 | 0.0 | 0.00 | 0.07 | 0.00 | 88 | 996.4 |
| 20260904191031 | 48 | 0 | 0.0 | 0.0 | 0.00 | 0.07 | 0.00 | 88 | 996.4 |
| 20260904190531 | 49 | 0 | 0.0 | 0.0 | 0.00 | 0.07 | 0.00 | 88 | 996.4 |
| 20260904190056 | 49 | 0 | 0.0 | 0.0 | 0.00 | 0.07 | 0.00 | 88 | 996.4 |
| 20260904185532 | 49 | 0 | 0.0 | 0.0 | 0.00 | 0.07 | 0.00 | 88 | 996.4 |
| 20260904185032 | 49 | 0 | 0.0 | 0.0 | 0.00 | 0.07 | 0.00 | 88 | 996.5 |
| 20260904184554 | 50 | 0 | 0.0 | 0.0 | 0.00 | 0.07 | 0.00 | 88 | 996.5 |
| 20260904184030 | 50 | 0 | 0.0 | 0.0 | 0.00 | 0.07 | 0.00 | 87 | 996.5 |
| 20260904183534 | 50 | 0 | 0.0 | 0.0 | 0.00 | 0.07 | 0.00 | 87 | 996.6 |
| 20260904183049 | 50 | 0 | 0.0 | 0.0 | 0.00 | 0.07 | 0.00 | 87 | 996.6 |
| 20260904182532 | 51 | 0 | 0.0 | 0.0 | 0.00 | 0.07 | 0.00 | 87 | 996.6 |
| 20260904182037 | 51 | 0 | 0.0 | 0.0 | 0.00 | 0.07 | 0.00 | 87 | 996.6 |
| 20260904181547 | 51 | 0 | 0.0 | 0.0 | 0.00 | 0.07 | 0.00 | 88 | 996.6 |
| 20260904181033 | 51 | 0 | 0.0 | 0.0 | 0.00 | 0.07 | 0.00 | 88 | 996.5 |
| 20260904180531 | 51 | 0 | 0.0 | 0.0 | 0.00 | 0.07 | 0.00 | 88 | 996.6 |
| 20260904180053 | 51 | 0 | 0.0 | 0.0 | 0.00 | 0.07 | 0.00 | 88 | 996.6 |
| 20260904175529 | 51 | 0 | 0.0 | 0.0 | 0.00 | 0.07 | 0.00 | 87 | 996.6 |
| 20260904175050 | 51 | 0 | 0.0 | 0.0 | 0.00 | 0.07 | 0.00 | 86 | 996.6 |
| 20260904174603 | 51 | 0 | 0.0 | 0.0 | 0.00 | 0.07 | 0.00 | 87 | 996.6 |
| 20260904174052 | 51 | 0 | 0.0 | 0.0 | 0.00 | 0.07 | 0.00 | 87 | 996.7 |
| 20260904173550 | 52 | 0 | 0.0 | 0.0 | 0.00 | 0.07 | 0.00 | 87 | 996.6 |
| 20260904173058 | 52 | 0 | 0.0 | 0.0 | 0.00 | 0.07 | 0.00 | 87 | 996.6 |
| 20260904172550 | 52 | 0 | 0.0 | 0.0 | 0.00 | 0.07 | 0.00 | 87 | 996.6 |
| 20260904172050 | 52 | 0 | 0.0 | 2.0 | 0.00 | 0.07 | 0.00 | 86 | 996.6 |
| 20260904171621 | 52 | 0 | 0.0 | 2.0 | 0.00 | 0.07 | 0.00 | 86 | 996.6 |
| 20260904171050 | 52 | 0 | 0.0 | 2.0 | 0.00 | 0.07 | 0.00 | 85 | 996.6 |
| 20260904170549 | 53 | 0 | 0.0 | 1.0 | 0.00 | 0.07 | 0.00 | 85 | 996.6 |
| 20260904170104 | 53 | 0 | 0.0 | 2.0 | 0.00 | 0.07 | 0.00 | 84 | 996.6 |
| 20260904165550 | 53 | 0 | 0.0 | 2.0 | 0.00 | 0.07 | 0.00 | 84 | 996.6 |
| 20260904165049 | 53 | 0 | 0.0 | 2.0 | 0.00 | 0.07 | 0.00 | 83 | 996.6 |
| 20260904164602 | 54 | 0 | 0.0 | 2.0 | 0.00 | 0.07 | 0.00 | 82 | 996.7 |
| 20260904164050 | 54 | 0 | 0.0 | 2.0 | 0.00 | 0.07 | 0.00 | 82 | 996.6 |
| 20260904163550 | 55 | 0 | 1.0 | 2.0 | 0.00 | 0.07 | 0.00 | 82 | 996.6 |
| 20260904163059 | 55 | 319 | 0.0 | 2.0 | 0.00 | 0.07 | 0.00 | 81 | 996.6 |
| 20260904162550 | 55 | 0 | 0.0 | 1.0 | 0.00 | 0.07 | 0.00 | 78 | 996.6 |
| 20260904162050 | 56 | 0 | 0.0 | 1.0 | 0.00 | 0.07 | 0.00 | 78 | 996.5 |
| 20260904161612 | 56 | 230 | 0.0 | 1.0 | 0.00 | 0.07 | 0.00 | 77 | 996.5 |
| 20260904161050 | 57 | 0 | 0.0 | 3.0 | 0.00 | 0.07 | 0.00 | 77 | 996.5 |
| 20260904160550 | 57 | 0 | 0.0 | 3.0 | 0.00 | 0.07 | 0.00 | 72 | 996.4 |
| 20260904160103 | 57 | 244 | 0.0 | 3.0 | 0.00 | 0.07 | 0.00 | 75 | 996.5 |
| 20260904155550 | 57 | 234 | 0.0 | 3.0 | 0.00 | 0.07 | 0.00 | 74 | 996.5 |
| 20260904155055 | 56 | 221 | 0.0 | 2.0 | 0.00 | 0.07 | 0.00 | 78 | 996.6 |
| 20260904154602 | 56 | 0 | 0.0 | 6.0 | 0.00 | 0.07 | 0.00 | 78 | 996.5 |
| 20260904154049 | 56 | 283 | 1.0 | 6.0 | 0.00 | 0.07 | 0.00 | 76 | 996.6 |
| 20260904153550 | 57 | 278 | 3.0 | 6.0 | 0.00 | 0.07 | 0.00 | 75 | 996.6 |
| 20260904153113 | 57 | 292 | 1.0 | 6.0 | 0.00 | 0.07 | 0.00 | 75 | 996.7 |
| 20260904152549 | 57 | 0 | 2.0 | 7.0 | 0.00 | 0.07 | 0.00 | 75 | 996.7 |
| 20260904152050 | 57 | 0 | 2.0 | 7.0 | 0.00 | 0.07 | 0.00 | 74 | 996.7 |
| 20260904151605 | 58 | 266 | 2.0 | 7.0 | 0.00 | 0.07 | 0.00 | 75 | 996.8 |
| 20260904151050 | 58 | 262 | 1.0 | 7.0 | 0.00 | 0.07 | 0.00 | 77 | 996.8 |
| 20260904150551 | 57 | 266 | 1.0 | 9.0 | 0.00 | 0.07 | 0.00 | 76 | 996.7 |
| 20260904150103 | 58 | 253 | 1.0 | 9.0 | 0.00 | 0.07 | 0.00 | 75 | 996.8 |
| 20260904145547 | 58 | 279 | 2.0 | 9.0 | 0.00 | 0.07 | 0.00 | 71 | 996.8 |
| 20260904145051 | 59 | 259 | 2.0 | 6.0 | 0.00 | 0.07 | 0.00 | 69 | 996.8 |
| 20260904144550 | 59 | 259 | 2.0 | 7.0 | 0.00 | 0.07 | 0.00 | 68 | 996.9 |
| 20260904144031 | 60 | 287 | 2.0 | 8.0 | 0.00 | 0.07 | 0.00 | 63 | 996.7 |
| 20260904143530 | 60 | 280 | 4.0 | 9.0 | 0.00 | 0.07 | 0.00 | 60 | 996.8 |
| 20260904143104 | 60 | 299 | 4.0 | 9.0 | 0.00 | 0.07 | 0.00 | 62 | 996.8 |
| 20260904142534 | 60 | 322 | 3.0 | 7.0 | 0.00 | 0.07 | 0.00 | 62 | 996.8 |
| 20260904142038 | 60 | 263 | 1.0 | 7.0 | 0.00 | 0.07 | 0.00 | 63 | 996.7 |
| 20260904141543 | 61 | 308 | 2.0 | 9.0 | 0.00 | 0.07 | 0.00 | 61 | 996.8 |
| 20260904141031 | 61 | 298 | 2.0 | 9.0 | 0.00 | 0.07 | 0.00 | 64 | 996.7 |
| 20260904140533 | 60 | 299 | 3.0 | 11.0 | 0.00 | 0.07 | 0.00 | 65 | 996.9 |
| 20260904140054 | 61 | 289 | 4.0 | 11.0 | 0.00 | 0.07 | 0.00 | 64 | 996.9 |
| 20260904135532 | 61 | 272 | 5.0 | 10.0 | 0.00 | 0.07 | 0.00 | 63 | 996.9 |
| 20260904135032 | 62 | 220 | 3.0 | 9.0 | 0.00 | 0.07 | 0.00 | 65 | 997.0 |
| 20260904134552 | 63 | 279 | 4.0 | 9.0 | 0.00 | 0.07 | 0.00 | 64 | 997.0 |
| 20260904134031 | 62 | 180 | 4.0 | 7.0 | 0.00 | 0.07 | 0.00 | 65 | 997.0 |
| 20260904133531 | 62 | 186 | 2.0 | 5.0 | 0.00 | 0.07 | 0.00 | 63 | 997.1 |
| 20260904133105 | 63 | 273 | 1.0 | 4.0 | 0.00 | 0.07 | 0.00 | 61 | 997.1 |
| 20260904132547 | 62 | 318 | 0.0 | 3.0 | 0.00 | 0.07 | 0.00 | 65 | 997.1 |
| 20260904132032 | 61 | 351 | 1.0 | 6.0 | 0.00 | 0.07 | 0.00 | 69 | 997.2 |
| 20260904131601 | 61 | 0 | 1.0 | 6.0 | 0.00 | 0.07 | 0.00 | 64 | 997.2 |
| 20260904131031 | 61 | 117 | 2.0 | 6.0 | 0.00 | 0.07 | 0.00 | 62 | 997.2 |
| 20260904130533 | 61 | 139 | 3.0 | 6.0 | 0.00 | 0.07 | 0.00 | 65 | 997.2 |
| 20260904130055 | 62 | 0 | 0.0 | 5.0 | 0.00 | 0.07 | 0.00 | 57 | 997.3 |
| 20260904125625 | 61 | 149 | 0.0 | 9.0 | 0.00 | 0.07 | 0.00 | 62 | 997.3 |
| 20260904125032 | 62 | 322 | 3.0 | 9.0 | 0.00 | 0.07 | 0.00 | 59 | 997.3 |
| 20260904124543 | 62 | 357 | 3.0 | 9.0 | 0.00 | 0.07 | 0.00 | 64 | 997.3 |
| 20260904124033 | 61 | 0 | 0.0 | 4.0 | 0.00 | 0.07 | 0.00 | 62 | 997.4 |
| 20260904123534 | 60 | 155 | 1.0 | 4.0 | 0.00 | 0.07 | 0.00 | 63 | 997.4 |
| 20260904123058 | 59 | 0 | 0.0 | 4.0 | 0.00 | 0.07 | 0.00 | 64 | 997.4 |
| 20260904122532 | 59 | 333 | 0.0 | 4.0 | 0.00 | 0.07 | 0.00 | 67 | 997.4 |
| 20260904122031 | 59 | 9 | 2.0 | 4.0 | 0.00 | 0.07 | 0.00 | 67 | 997.5 |
| 20260904121549 | 59 | 4 | 0.0 | 4.0 | 0.00 | 0.07 | 0.00 | 74 | 997.5 |
| 20260904121033 | 59 | 0 | 0.0 | 3.0 | 0.00 | 0.07 | 0.00 | 74 | 997.6 |
| 20260904120531 | 59 | 278 | 0.0 | 3.0 | 0.00 | 0.07 | 0.00 | 70 | 997.6 |
| 20260904120058 | 58 | 0 | 0.0 | 1.0 | 0.00 | 0.07 | 0.00 | 72 | 997.6 |
| 20260904115531 | 58 | 0 | 0.0 | 1.0 | 0.00 | 0.07 | 0.00 | 76 | 997.7 |
| 20260904115032 | 57 | 0 | 0.0 | 1.0 | 0.00 | 0.07 | 0.00 | 77 | 997.7 |
| 20260904114548 | 57 | 0 | 0.0 | 3.0 | 0.00 | 0.07 | 0.00 | 74 | 997.8 |
| 20260904114031 | 57 | 0 | 0.0 | 5.0 | 0.00 | 0.07 | 0.00 | 76 | 997.8 |
| 20260904113531 | 57 | 4 | 1.0 | 5.0 | 0.00 | 0.07 | 0.00 | 72 | 997.8 |
| 20260904113055 | 58 | 14 | 2.0 | 5.0 | 0.00 | 0.07 | 0.00 | 69 | 997.9 |
| 20260904112530 | 58 | 0 | 2.0 | 10.0 | 0.00 | 0.07 | 0.00 | 65 | 997.9 |
| 20260904112033 | 59 | 21 | 3.0 | 11.0 | 0.00 | 0.07 | 0.00 | 67 | 997.8 |
| 20260904111552 | 60 | 336 | 5.0 | 11.0 | 0.00 | 0.07 | 0.00 | 63 | 998.0 |
| 20260904111030 | 60 | 320 | 4.0 | 11.0 | 0.00 | 0.07 | 0.00 | 68 | 997.9 |
| 20260904110531 | 59 | 4 | 4.0 | 11.0 | 0.00 | 0.07 | 0.00 | 66 | 998.0 |
| 20260904110051 | 60 | 54 | 5.0 | 11.0 | 0.00 | 0.07 | 0.00 | 66 | 998.0 |
| 20260904105534 | 62 | 50 | 3.0 | 8.0 | 0.00 | 0.07 | 0.00 | 66 | 998.0 |
| 20260904105030 | 61 | 277 | 3.0 | 7.0 | 0.00 | 0.07 | 0.00 | 60 | 998.0 |
| 20260904104545 | 60 | 0 | 1.0 | 4.0 | 0.00 | 0.07 | 0.00 | 62 | 998.1 |
| 20260904104031 | 60 | 261 | 0.0 | 1.0 | 0.00 | 0.07 | 0.00 | 60 | 998.0 |
| 20260904103530 | 57 | 0 | 0.0 | 3.0 | 0.00 | 0.07 | 0.00 | 75 | 998.1 |
| 20260904103053 | 58 | 0 | 0.0 | 3.0 | 0.00 | 0.07 | 0.00 | 71 | 998.0 |
| 20260904102531 | 59 | 272 | 1.0 | 5.0 | 0.00 | 0.07 | 0.00 | 59 | 998.1 |
| 20260904102031 | 60 | 236 | 1.0 | 5.0 | 0.00 | 0.07 | 0.00 | 59 | 998.1 |
| 20260904101550 | 60 | 0 | 0.0 | 5.0 | 0.00 | 0.07 | 0.00 | 63 | 998.2 |
| 20260904101031 | 60 | 229 | 0.0 | 4.0 | 0.00 | 0.07 | 0.00 | 67 | 998.2 |
| 20260904100531 | 59 | 272 | 0.0 | 4.0 | 0.00 | 0.07 | 0.00 | 64 | 998.1 |
| 20260904100049 | 60 | 0 | 2.0 | 4.0 | 0.00 | 0.07 | 0.00 | 68 | 998.2 |
| 20260904095532 | 59 | 0 | 0.0 | 4.0 | 0.00 | 0.07 | 0.00 | 71 | 998.2 |
| 20260904095031 | 59 | 240 | 1.0 | 4.0 | 0.00 | 0.07 | 0.00 | 68 | 998.2 |
| 20260904094543 | 59 | 324 | 2.0 | 4.0 | 0.00 | 0.07 | 0.00 | 66 | 998.2 |
| 20260904094030 | 59 | 35 | 0.0 | 3.0 | 0.00 | 0.07 | 0.00 | 66 | 998.2 |
| 20260904093532 | 58 | 261 | 2.0 | 3.0 | 0.00 | 0.07 | 0.00 | 73 | 998.4 |
| 20260904093052 | 58 | 0 | 0.0 | 3.0 | 0.00 | 0.07 | 0.00 | 74 | 998.3 |
| 20260904092531 | 57 | 334 | 1.0 | 4.0 | 0.00 | 0.07 | 0.00 | 77 | 998.5 |
| 20260904092030 | 58 | 342 | 1.0 | 5.0 | 0.00 | 0.07 | 0.00 | 75 | 998.4 |
| 20260904091547 | 58 | 356 | 1.0 | 5.0 | 0.00 | 0.07 | 0.00 | 76 | 998.4 |
| 20260904091033 | 58 | 358 | 1.0 | 6.0 | 0.00 | 0.07 | 0.00 | 76 | 998.5 |
| 20260904090531 | 59 | 23 | 2.0 | 6.0 | 0.00 | 0.07 | 0.00 | 75 | 998.5 |
| 20260904090053 | 58 | 218 | 0.0 | 4.0 | 0.00 | 0.07 | 0.00 | 77 | 998.6 |
| 20260904085533 | 58 | 199 | 1.0 | 4.0 | 0.00 | 0.07 | 0.00 | 78 | 998.6 |
| 20260904085031 | 58 | 234 | 1.0 | 4.0 | 0.00 | 0.07 | 0.00 | 79 | 998.6 |
| 20260904084558 | 57 | 145 | 2.0 | 4.0 | 0.00 | 0.07 | 0.00 | 82 | 998.7 |
| 20260904084030 | 57 | 237 | 0.0 | 2.0 | 0.00 | 0.07 | 0.00 | 80 | 998.6 |
| 20260904083530 | 56 | 237 | 0.0 | 2.0 | 0.00 | 0.07 | 0.00 | 78 | 998.7 |
| 20260904083051 | 55 | 0 | 0.0 | 0.0 | 0.00 | 0.07 | 0.00 | 88 | 998.6 |
| 20260904082532 | 53 | 0 | 0.0 | 0.0 | 0.00 | 0.07 | 0.00 | 90 | 998.7 |
| 20260904082030 | 53 | 0 | 0.0 | 0.0 | 0.00 | 0.07 | 0.00 | 91 | 998.7 |
| 20260904081544 | 53 | 0 | 0.0 | 0.0 | 0.00 | 0.07 | 0.00 | 92 | 998.7 |
| 20260904081035 | 53 | 0 | 0.0 | 1.0 | 0.00 | 0.07 | 0.00 | 91 | 998.8 |
| 20260904080531 | 54 | 0 | 0.0 | 1.0 | 0.00 | 0.07 | 0.00 | 90 | 998.8 |
| 20260904075531 | 54 | 0 | 1.0 | 3.0 | 0.00 | 0.07 | 0.00 | 87 | 998.8 |
| 20260904075033 | 55 | 237 | 1.0 | 3.0 | 0.00 | 0.07 | 0.00 | 86 | 998.8 |
| 20260904074550 | 56 | 238 | 0.0 | 3.0 | 0.00 | 0.07 | 0.00 | 86 | 998.8 |
| 20260904074030 | 56 | 0 | 0.0 | 3.0 | 0.00 | 0.07 | 0.00 | 88 | 998.9 |
| 20260904073533 | 55 | 0 | 0.0 | 3.0 | 0.00 | 0.07 | 0.00 | 89 | 998.9 |
| 20260904073048 | 54 | 0 | 0.0 | 3.0 | 0.00 | 0.07 | 0.00 | 87 | 998.9 |
| 20260904072531 | 54 | 238 | 0.0 | 4.0 | 0.00 | 0.07 | 0.00 | 88 | 998.8 |
| 20260904072030 | 54 | 237 | 2.0 | 4.0 | 0.00 | 0.07 | 0.00 | 89 | 998.8 |
| 20260904071547 | 54 | 0 | 0.0 | 1.0 | 0.00 | 0.07 | 0.00 | 90 | 998.8 |
| 20260904071030 | 53 | 0 | 0.0 | 1.0 | 0.00 | 0.07 | 0.00 | 92 | 998.9 |
| 20260904070531 | 53 | 0 | 0.0 | 1.0 | 0.00 | 0.07 | 0.00 | 91 | 998.9 |
| 20260904070050 | 53 | 0 | 0.0 | 0.0 | 0.00 | 0.07 | 0.00 | 92 | 998.9 |
| 20260904065529 | 53 | 0 | 0.0 | 0.0 | 0.00 | 0.07 | 0.00 | 93 | 998.9 |
| 20260904065029 | 52 | 0 | 0.0 | 0.0 | 0.00 | 0.07 | 0.00 | 94 | 998.9 |
| 20260904064543 | 51 | 0 | 0.0 | 0.0 | 0.00 | 0.07 | 0.00 | 94 | 998.9 |
| 20260904064030 | 50 | 0 | 0.0 | 0.0 | 0.00 | 0.07 | 0.00 | 95 | 998.7 |
| 20260904063540 | 50 | 0 | 0.0 | 0.0 | 0.00 | 0.07 | 0.00 | 96 | 998.9 |
| 20260904063109 | 50 | 0 | 0.0 | 0.0 | 0.00 | 0.07 | 0.00 | 97 | 998.8 |
| 20260904062529 | 49 | 0 | 0.0 | 0.0 | 0.00 | 0.07 | 0.00 | 97 | 998.9 |
| 20260904062030 | 48 | 0 | 0.0 | 0.0 | 0.00 | 0.07 | 0.00 | 97 | 998.9 |
| 20260904061543 | 47 | 0 | 0.0 | 1.0 | 0.00 | 0.07 | 0.00 | 97 | 999.0 |
| 20260904061030 | 47 | 0 | 0.0 | 2.0 | 0.00 | 0.07 | 0.00 | 97 | 998.9 |
| 20260904060530 | 47 | 0 | 0.0 | 3.0 | 0.00 | 0.07 | 0.00 | 97 | 999.0 |
| 20260904060055 | 47 | 0 | 0.0 | 3.0 | 0.00 | 0.07 | 0.00 | 97 | 999.0 |
| 20260904055534 | 46 | 167 | 1.0 | 3.0 | 0.00 | 0.07 | 0.00 | 97 | 999.0 |
| 20260904055029 | 45 | 0 | 0.0 | 1.0 | 0.00 | 0.07 | 0.00 | 97 | 999.1 |
| 20260904054554 | 43 | 0 | 0.0 | 0.0 | 0.00 | 0.07 | 0.00 | 97 | 999.0 |
| 20260904054032 | 42 | 0 | 0.0 | 0.0 | 0.00 | 0.07 | 0.00 | 96 | 999.0 |
| 20260904053531 | 42 | 0 | 0.0 | 0.0 | 0.00 | 0.07 | 0.00 | 96 | 999.1 |
| 20260904053059 | 40 | 0 | 0.0 | 2.0 | 0.00 | 0.07 | 0.00 | 96 | 999.0 |
| 20260904052534 | 39 | 0 | 0.0 | 2.0 | 0.00 | 0.07 | 0.00 | 96 | 999.1 |
| 20260904052033 | 39 | 167 | 0.0 | 2.0 | 0.00 | 0.07 | 0.00 | 96 | 999.0 |
| 20260904051545 | 38 | 0 | 0.0 | 0.0 | 0.00 | 0.07 | 0.00 | 96 | 999.0 |
| 20260904051035 | 38 | 0 | 0.0 | 0.0 | 0.00 | 0.07 | 0.00 | 96 | 999.1 |
| 20260904050534 | 38 | 0 | 0.0 | 0.0 | 0.00 | 0.07 | 0.00 | 96 | 999.1 |
| 20260904050045 | 38 | 0 | 0.0 | 0.0 | 0.00 | 0.07 | 0.00 | 96 | 999.3 |
| 20260904045531 | 38 | 0 | 0.0 | 0.0 | 0.00 | 0.07 | 0.00 | 96 | 999.3 |
| 20260904045030 | 38 | 0 | 0.0 | 0.0 | 0.00 | 0.07 | 0.00 | 96 | 999.3 |
| 20260904044559 | 38 | 0 | 0.0 | 0.0 | 0.00 | 0.07 | 0.00 | 96 | 999.4 |
| 20260904044034 | 38 | 0 | 0.0 | 0.0 | 0.00 | 0.07 | 0.00 | 96 | 999.4 |
| 20260904043529 | 38 | 0 | 0.0 | 0.0 | 0.00 | 0.07 | 0.00 | 96 | 999.4 |
| 20260904043058 | 37 | 0 | 0.0 | 0.0 | 0.00 | 0.07 | 0.00 | 96 | 999.4 |
| 20260904042529 | 37 | 0 | 0.0 | 0.0 | 0.00 | 0.07 | 0.00 | 96 | 999.5 |
| 20260904042032 | 37 | 0 | 0.0 | 0.0 | 0.00 | 0.07 | 0.00 | 95 | 999.4 |
| 20260904041548 | 37 | 0 | 0.0 | 0.0 | 0.00 | 0.07 | 0.00 | 95 | 999.6 |
| 20260904041029 | 37 | 0 | 0.0 | 0.0 | 0.00 | 0.07 | 0.00 | 96 | 999.5 |
| 20260904040531 | 37 | 0 | 0.0 | 0.0 | 0.00 | 0.07 | 0.00 | 96 | 999.5 |
| 20260904040058 | 37 | 0 | 0.0 | 0.0 | 0.00 | 0.07 | 0.00 | 95 | 999.5 |
| 20260904035531 | 38 | 0 | 0.0 | 0.0 | 0.00 | 0.07 | 0.00 | 95 | 999.4 |
| 20260904035031 | 38 | 0 | 0.0 | 0.0 | 0.00 | 0.07 | 0.00 | 95 | 999.4 |
| 20260904034553 | 38 | 0 | 0.0 | 0.0 | 0.00 | 0.06 | 0.00 | 95 | 999.5 |
| 20260904034032 | 38 | 0 | 0.0 | 0.0 | 0.00 | 0.06 | 0.00 | 95 | 999.5 |
| 20260904033534 | 38 | 0 | 0.0 | 0.0 | 0.00 | 0.06 | 0.00 | 96 | 999.5 |
| 20260904033048 | 38 | 0 | 0.0 | 0.0 | 0.00 | 0.06 | 0.00 | 96 | 999.6 |
| 20260904032533 | 38 | 0 | 0.0 | 0.0 | 0.00 | 0.06 | 0.00 | 96 | 999.6 |
| 20260904032029 | 38 | 0 | 0.0 | 0.0 | 0.00 | 0.06 | 0.00 | 95 | 999.7 |
| 20260904031548 | 39 | 0 | 0.0 | 1.0 | 0.00 | 0.06 | 0.00 | 95 | 999.8 |
| 20260904031030 | 39 | 0 | 0.0 | 1.0 | 0.00 | 0.06 | 0.00 | 95 | 999.8 |
| 20260904030531 | 39 | 0 | 0.0 | 3.0 | 0.00 | 0.06 | 0.00 | 95 | 999.7 |
| 20260904030056 | 40 | 0 | 0.0 | 3.0 | 0.00 | 0.06 | 0.00 | 95 | 999.8 |
| 20260904025531 | 42 | 0 | 0.0 | 4.0 | 0.00 | 0.06 | 0.00 | 96 | 999.9 |
| 20260904025030 | 42 | 0 | 0.0 | 4.0 | 0.00 | 0.06 | 0.00 | 96 | 999.8 |
| 20260904024558 | 41 | 214 | 1.0 | 3.0 | 0.00 | 0.06 | 0.00 | 96 | 999.9 |
| 20260904024031 | 40 | 210 | 0.0 | 2.0 | 0.00 | 0.06 | 0.00 | 96 | 1000.0 |
| 20260904023531 | 39 | 186 | 0.0 | 3.0 | 0.00 | 0.06 | 0.00 | 96 | 1000.0 |
| 20260904023054 | 38 | 186 | 0.0 | 3.0 | 0.00 | 0.06 | 0.00 | 95 | 1000.0 |
| 20260904022529 | 38 | 0 | 0.0 | 3.0 | 0.00 | 0.06 | 0.00 | 95 | 1000.2 |
| 20260904022031 | 39 | 0 | 0.0 | 2.0 | 0.00 | 0.06 | 0.00 | 95 | 1000.1 |
| 20260904021556 | 38 | 181 | 0.0 | 2.0 | 0.00 | 0.06 | 0.00 | 95 | 1000.2 |
| 20260904021031 | 39 | 0 | 0.0 | 0.0 | 0.00 | 0.06 | 0.00 | 95 | 1000.1 |
| 20260904020531 | 39 | 0 | 0.0 | 0.0 | 0.00 | 0.06 | 0.00 | 95 | 1000.2 |
| 20260904020045 | 39 | 0 | 0.0 | 0.0 | 0.00 | 0.06 | 0.00 | 95 | 1000.3 |
| 20260904015537 | 39 | 0 | 0.0 | 0.0 | 0.00 | 0.06 | 0.00 | 95 | 1000.4 |
| 20260904015033 | 40 | 0 | 0.0 | 0.0 | 0.00 | 0.06 | 0.00 | 95 | 1000.4 |
| 20260904014546 | 40 | 0 | 0.0 | 1.0 | 0.00 | 0.06 | 0.00 | 95 | 1000.4 |
| 20260904014031 | 40 | 0 | 0.0 | 1.0 | 0.00 | 0.06 | 0.00 | 95 | 1000.3 |
| 20260904013530 | 40 | 191 | 0.0 | 0.0 | 0.00 | 0.06 | 0.00 | 95 | 1000.4 |
| 20260904013113 | 41 | 0 | 0.0 | 0.0 | 0.00 | 0.06 | 0.00 | 95 | 1000.4 |
| 20260904012531 | 41 | 0 | 0.0 | 0.0 | 0.00 | 0.06 | 0.00 | 95 | 1000.4 |
| 20260904012031 | 41 | 0 | 0.0 | 0.0 | 0.00 | 0.06 | 0.00 | 95 | 1000.4 |
| 20260904011631 | 42 | 0 | 0.0 | 0.0 | 0.00 | 0.06 | 0.00 | 95 | 1000.4 |
| 20260904011032 | 42 | 0 | 0.0 | 0.0 | 0.00 | 0.06 | 0.00 | 95 | 1000.5 |
| 20260904010531 | 43 | 0 | 0.0 | 0.0 | 0.00 | 0.06 | 0.00 | 96 | 1000.4 |
| 20260904010049 | 43 | 0 | 0.0 | 0.0 | 0.00 | 0.06 | 0.00 | 95 | 1000.5 |
| 20260904005532 | 43 | 0 | 0.0 | 1.0 | 0.00 | 0.06 | 0.00 | 95 | 1000.5 |
| 20260904005031 | 43 | 0 | 0.0 | 2.0 | 0.00 | 0.06 | 0.00 | 95 | 1000.5 |
| 20260904004554 | 43 | 0 | 0.0 | 2.0 | 0.00 | 0.06 | 0.00 | 96 | 1000.6 |
| 20260904004033 | 43 | 191 | 0.0 | 2.0 | 0.00 | 0.06 | 0.00 | 96 | 1000.6 |
| 20260904003534 | 43 | 191 | 0.0 | 3.0 | 0.00 | 0.06 | 0.00 | 96 | 1000.6 |
| 20260904003053 | 43 | 0 | 0.0 | 3.0 | 0.00 | 0.06 | 0.00 | 96 | 1000.6 |
| 20260904002532 | 42 | 0 | 0.0 | 3.0 | 0.00 | 0.06 | 0.00 | 95 | 1000.7 |
| 20260904002031 | 43 | 0 | 0.0 | 0.0 | 0.00 | 0.06 | 0.00 | 96 | 1000.8 |
| 20260904001552 | 43 | 0 | 0.0 | 0.0 | 0.00 | 0.06 | 0.00 | 95 | 1000.8 |
| 20260904001032 | 42 | 0 | 0.0 | 0.0 | 0.00 | 0.06 | 0.00 | 95 | 1000.8 |
| 20260904000533 | 42 | 0 | 0.0 | 0.0 | 0.00 | 0.06 | 0.00 | 95 | 1000.8 |
| 20260904000058 | 42 | 0 | 0.0 | 0.0 | 0.00 | 0.06 | 0.00 | 95 | 1000.9 |
| 20260903235531 | 42 | 0 | 0.0 | 0.0 | 0.00 | 0.06 | 0.00 | 95 | 1001.0 |
| 20260903235031 | 43 | 0 | 0.0 | 0.0 | 0.00 | 0.06 | 0.00 | 95 | 1001.0 |
| 20260903234557 | 43 | 0 | 0.0 | 0.0 | 0.00 | 0.06 | 0.00 | 95 | 1001.0 |
| 20260903234030 | 43 | 0 | 0.0 | 1.0 | 0.00 | 0.06 | 0.00 | 95 | 1001.1 |
| 20260903233532 | 43 | 0 | 0.0 | 1.0 | 0.00 | 0.06 | 0.00 | 95 | 1001.2 |
| 20260903233052 | 43 | 0 | 0.0 | 3.0 | 0.00 | 0.06 | 0.00 | 95 | 1001.2 |
| 20260903232531 | 43 | 0 | 0.0 | 3.0 | 0.00 | 0.06 | 0.00 | 95 | 1001.2 |
| 20260903232031 | 44 | 0 | 0.0 | 3.0 | 0.00 | 0.06 | 0.00 | 95 | 1001.2 |
| 20260903231553 | 44 | 219 | 0.0 | 3.0 | 0.00 | 0.06 | 0.00 | 95 | 1001.3 |
| 20260903231031 | 44 | 174 | 0.0 | 2.0 | 0.00 | 0.06 | 0.00 | 95 | 1001.3 |
| 20260903230530 | 44 | 0 | 0.0 | 2.0 | 0.00 | 0.06 | 0.00 | 95 | 1001.3 |
| 20260903230105 | 45 | 210 | 0.0 | 2.0 | 0.00 | 0.06 | 0.00 | 95 | 1001.2 |
| 20260903225533 | 45 | 0 | 0.0 | 4.0 | 0.00 | 0.06 | 0.00 | 95 | 1001.2 |
| 20260903225031 | 45 | 0 | 0.0 | 4.0 | 0.00 | 0.06 | 0.00 | 95 | 1001.2 |
| 20260903224550 | 45 | 0 | 0.0 | 4.0 | 0.00 | 0.06 | 0.00 | 95 | 1001.2 |
| 20260903224031 | 45 | 174 | 0.0 | 5.0 | 0.00 | 0.06 | 0.00 | 95 | 1001.3 |
| 20260903223531 | 45 | 177 | 0.0 | 5.0 | 0.00 | 0.06 | 0.00 | 95 | 1001.3 |
| 20260903223059 | 45 | 0 | 0.0 | 3.0 | 0.00 | 0.06 | 0.00 | 95 | 1001.4 |
| 20260903222531 | 45 | 0 | 0.0 | 3.0 | 0.00 | 0.06 | 0.00 | 95 | 1001.4 |
| 20260903222055 | 45 | 0 | 0.0 | 3.0 | 0.00 | 0.06 | 0.00 | 95 | 1001.5 |
| 20260903221545 | 45 | 171 | 0.0 | 4.0 | 0.00 | 0.06 | 0.00 | 95 | 1001.4 |
| 20260903221032 | 45 | 0 | 1.0 | 4.0 | 0.00 | 0.06 | 0.00 | 95 | 1001.4 |
| 20260903220530 | 44 | 0 | 0.0 | 2.0 | 0.00 | 0.06 | 0.00 | 95 | 1001.4 |
| 20260903220053 | 44 | 0 | 0.0 | 1.0 | 0.00 | 0.06 | 0.00 | 95 | 1001.4 |
| 20260903215530 | 44 | 209 | 0.0 | 2.0 | 0.00 | 0.06 | 0.00 | 94 | 1001.4 |
| 20260903215033 | 44 | 0 | 0.0 | 5.0 | 0.00 | 0.06 | 0.00 | 94 | 1001.4 |
| 20260903214600 | 44 | 0 | 0.0 | 5.0 | 0.00 | 0.06 | 0.00 | 94 | 1001.2 |
| 20260903214031 | 44 | 0 | 0.0 | 0.0 | 0.00 | 0.06 | 0.00 | 94 | 1001.4 |